Regional Weather Roundup
Issued by NWS Green Bay, WI

Home | Current Version | Previous Version | Graphics & Text | Print | Product List | Glossary Off
Versions: 1 2 3 4 5 6 7 8 9 10 11 12 13 14 15 16 17 18 19 20 21 22 23 24 25 26 27 28 29 30 31 32 33 34 35 36 37 38 39 40 41 42 43 44 45 46 47 48 49 50

504
ASUS43 KGRB 291911
RWRGRB

NORTH-CENTRAL AND NORTHEAST WISCONSIN REGIONAL WEATHER ROUNDUP
NATIONAL WEATHER SERVICE GREEN BAY WI
200 PM CDT SUN MAY 29 2016

WIZ005-009-010>012-018-019-292000-
NORTH CENTRAL WISCONSIN

CITY           SKY/WX    TMP DP  RH WIND       PRES   REMARKS
IRONWOOD       PTSUNNY   66  63  88 W14       29.81R
MANITOWISH WTR NOT AVBL
ARBOR VITAE    MOSUNNY   65  62  87 W8        29.87S
EAGLE RIVER      N/A     68  55  62 W14       29.85F
LAND O LAKES   LGT RAIN  68  57  67 W10       29.85S
RHINELANDER    CLOUDY    70  57  63 W20G25    29.88S
PHILLIPS       CLOUDY    67  59  76 W9G20     29.88R
ANTIGO         PTSUNNY   69  61  77 W13G18    29.88F
TOMAHAWK       HVY RAIN  66  57  72 W8G16     29.89S
MERRILL        PTSUNNY   68  64  86 W10       29.89S
$$

WIZ013-073-292000-
NORTHEAST WISCONSIN

CITY           SKY/WX    TMP DP  RH WIND       PRES   REMARKS
IRON MOUNTAIN  NOT AVBL
MARINETTE      CLOUDY    72  63  73 SW10      29.84F
OCONTO         PTSUNNY   72  63  73 W16G22    29.85F
$$

WIZ017-030-035>037-045-292000-
CENTRAL WISCONSIN

CITY           SKY/WX    TMP DP  RH WIND       PRES   REMARKS
MEDFORD        CLOUDY    66  60  81 W9G23     29.91R
WAUSAU         CLOUDY    72  60  66 W16G22    29.88S
MOSINEE        LGT RAIN  66  64  94 SW14G20   29.92R
MARSHFIELD     LGT RAIN  65  61  87 W14G23    29.92S
WISC RAPIDS    CLOUDY    72  56  57 W20G29    29.93S
STEVENS POINT  CLOUDY    66  61  85 W12G17    29.93R
WAUPACA        CLOUDY    72  61  68 SW9G20    29.91S
SHAWANO        CLOUDY    74  60  62 W16G25    29.88S
CLINTONVILLE   CLOUDY    73  59  60 W14G21    29.89S
WAUTOMA        PTSUNNY  N/A N/A N/A W16G24    29.93R
$$

WIZ038-039-048-051-292000-
FOX VALLEY

CITY           SKY/WX    TMP DP  RH WIND       PRES   REMARKS
NWS GREEN BAY  PTSUNNY   72  63  73 W15G21    29.88S
APPLETON       PTSUNNY   70  61  73 W18       29.90S
OSHKOSH        CLOUDY    72  59  63 W6        29.91S
FOND DU LAC    MOSUNNY   75  59  57 W12G24    29.92S
$$

WIZ022-050-052-292000-
EAST CENTRAL WISCONSIN

CITY           SKY/WX    TMP DP  RH WIND       PRES   REMARKS
EPHRAIM        MOCLDY    65  64  97 SW7       29.84F
STURGEON BAY   NOT AVBL
MANITOWOC      CLOUDY    73  60  63 SW17G30   29.91S
SHEBOYGAN      CLOUDY    71  61  70 W12       29.92R
$$

LMZ563-521-522-541>543-292000-
LAKESHORE

STATION/POSITION TIME  TEMP    WIND        PRES    VSBY  WAVE
                       AIR SEA DIR/SP/G                  HT/PER
                 (UTC) (F)     (DEG/KT/KT) (MB)    (MI)  (FT/S)
SHEBOYGAN LKSHOR 1900   72     260/ 10/ 14 1013.2R
KEWAUNEE LKSHORE 1800   68     230/ 12/ 16 1011.4R
NORTHPORT PIER   1800   59     140/  6/ 10 1010.8F
N MID LAKE BUOY  1850   50 47  190/ 12/ 16 1010.9F         2/ 4
CHAMBERS ISLAND  1800   63     180/ 11/ 23 1011.2R
MENOMINEE LKSHOR 1800   66     200/  8/ 11 1009.8R
$$




USA.gov is the U.S. government's official web portal to all federal, state and local government web resources and services.